Time,TemperatureF,DewpointF,PressureIn,WindDirection,WindDirectionDegrees,WindSpeedMPH,WindSpeedGustMPH,Humidity,HourlyPrecipIn,Conditions,Clouds,dailyrainin,SoftwareType,DateUTC
2013-10-10 00:14:00,50.0,50.0,30.12,NNE,20,0.0,0.0,100,0.00,,,0.00,,2013-10-10 04:14:00,
2013-10-10 00:24:00,50.0,50.0,30.12,NNE,20,0.0,0.0,100,0.00,,,0.00,,2013-10-10 04:24:00,
2013-10-10 00:49:00,49.0,49.0,30.12,NNE,20,0.0,0.0,100,0.00,,,0.00,,2013-10-10 04:49:00,
2013-10-10 01:12:00,48.0,48.0,30.12,NNE,20,0.0,0.0,100,0.00,,,0.00,,2013-10-10 05:12:00,
2013-10-10 01:23:00,48.0,48.0,30.12,NNE,20,0.0,0.0,100,0.00,,,0.00,,2013-10-10 05:23:00,
2013-10-10 01:43:00,47.0,47.0,30.10,NNE,20,0.0,0.0,100,0.00,,,0.00,,2013-10-10 05:43:00,
2013-10-10 01:53:00,47.0,47.0,30.10,NNE,20,0.0,0.0,100,0.00,,,0.00,,2013-10-10 05:53:00,
2013-10-10 02:13:00,47.0,47.0,30.09,NNE,20,0.0,0.0,100,0.00,,,0.00,,2013-10-10 06:13:00,
2013-10-10 02:22:00,47.0,47.0,30.09,NNE,20,0.0,0.0,100,0.00,,,0.00,,2013-10-10 06:22:00,
2013-10-10 02:42:00,46.0,46.0,30.09,NNE,20,0.0,0.0,100,0.00,,,0.00,,2013-10-10 06:42:00,
2013-10-10 02:53:00,46.0,46.0,30.09,NNE,20,0.0,0.0,100,0.00,,,0.00,,2013-10-10 06:53:00,
2013-10-10 03:11:00,45.0,45.0,30.10,NNE,20,0.0,0.0,100,0.00,,,0.00,,2013-10-10 07:11:00,
2013-10-10 03:22:00,45.0,45.0,30.10,NNE,20,0.0,0.0,100,0.00,,,0.00,,2013-10-10 07:22:00,
2013-10-10 03:42:00,45.0,45.0,30.11,NNE,20,0.0,0.0,100,0.00,,,0.00,,2013-10-10 07:42:00,
2013-10-10 03:52:00,45.0,45.0,30.11,NNE,20,0.0,0.0,100,0.00,,,0.00,,2013-10-10 07:52:00,
2013-10-10 04:11:00,45.0,45.0,30.10,NNE,20,0.0,0.0,100,0.00,,,0.00,,2013-10-10 08:11:00,
2013-10-10 04:22:00,45.0,45.0,30.10,NNE,20,0.0,0.0,100,0.00,,,0.00,,2013-10-10 08:22:00,
2013-10-10 04:32:00,45.0,45.0,30.10,NNE,20,0.0,0.0,100,0.00,,,0.00,,2013-10-10 08:32:00,
2013-10-10 05:12:00,44.0,44.0,30.09,NNE,20,0.0,0.0,100,0.00,,,0.00,,2013-10-10 09:12:00,
2013-10-10 05:22:00,44.0,44.0,30.09,NNE,20,0.0,0.0,100,0.00,,,0.00,,2013-10-10 09:22:00,
2013-10-10 05:43:00,44.0,44.0,30.07,NNE,20,0.0,0.0,100,0.00,,,0.00,,2013-10-10 09:43:00,
2013-10-10 05:54:00,44.0,44.0,30.07,NNE,20,0.0,0.0,100,0.00,,,0.00,,2013-10-10 09:54:00,
2013-10-10 06:12:00,44.0,44.0,30.08,NNE,20,0.0,0.0,100,0.00,,,0.00,,2013-10-10 10:12:00,
2013-10-10 06:23:00,44.0,44.0,30.08,NNE,20,0.0,0.0,100,0.00,,,0.00,,2013-10-10 10:23:00,
2013-10-10 06:42:00,43.0,43.0,30.09,NNE,20,0.0,0.0,100,0.00,,,0.00,,2013-10-10 10:42:00,
2013-10-10 06:53:00,43.0,43.0,30.09,NNE,20,0.0,0.0,100,0.00,,,0.00,,2013-10-10 10:53:00,
2013-10-10 07:12:00,43.0,43.0,30.10,NNE,20,0.0,0.0,100,0.00,,,0.00,,2013-10-10 11:12:00,
2013-10-10 07:22:00,43.0,43.0,30.10,NNE,20,0.0,0.0,100,0.00,,,0.00,,2013-10-10 11:22:00,
2013-10-10 07:42:00,43.0,43.0,30.10,NNE,20,0.0,0.0,100,0.00,,,0.00,,2013-10-10 11:42:00,
2013-10-10 07:57:00,43.0,43.0,30.10,NNE,20,0.0,0.0,100,0.00,,,0.00,,2013-10-10 11:57:00,
2013-10-10 08:12:00,42.0,42.0,30.10,NNE,20,0.0,0.0,100,0.00,,,0.00,,2013-10-10 12:12:00,
2013-10-10 08:21:00,42.0,42.0,30.10,NNE,20,0.0,0.0,100,0.00,,,0.00,,2013-10-10 12:21:00,
2013-10-10 08:32:00,42.0,42.0,30.10,NNE,20,0.0,0.0,100,0.00,,,0.00,,2013-10-10 12:32:00,
2013-10-10 09:12:00,43.0,43.0,30.11,NNE,20,0.0,0.0,100,0.00,,,0.00,,2013-10-10 13:12:00,
2013-10-10 09:21:00,43.0,43.0,30.11,NNE,20,0.0,0.0,100,0.00,,,0.00,,2013-10-10 13:21:00,
2013-10-10 09:42:00,44.0,44.0,30.11,NE,35,0.0,0.0,100,0.00,,,0.00,,2013-10-10 13:42:00,
2013-10-10 09:52:00,44.0,44.0,30.11,NE,35,0.0,0.0,100,0.00,,,0.00,,2013-10-10 13:52:00,
2013-10-10 10:11:00,46.0,46.0,30.10,NE,40,0.0,0.0,100,0.00,,,0.00,,2013-10-10 14:11:00,
2013-10-10 10:22:00,46.0,46.0,30.10,NE,40,0.0,0.0,100,0.00,,,0.00,,2013-10-10 14:22:00,
2013-10-10 10:42:00,48.0,48.0,30.11,NE,40,0.0,0.0,100,0.00,,,0.00,,2013-10-10 14:42:00,
2013-10-10 10:52:00,48.0,48.0,30.11,NE,40,0.0,0.0,100,0.00,,,0.00,,2013-10-10 14:52:00,
2013-10-10 11:11:00,51.0,51.0,30.09,ENE,72,0.0,0.0,100,0.00,,,0.00,,2013-10-10 15:11:00,
2013-10-10 11:22:00,51.0,51.0,30.09,ENE,72,0.0,0.0,100,0.00,,,0.00,,2013-10-10 15:22:00,
2013-10-10 11:43:00,55.0,55.0,30.08,WNW,294,1.0,5.0,100,0.00,,,0.00,,2013-10-10 15:43:00,
2013-10-10 11:54:00,55.0,55.0,30.08,WNW,294,1.0,5.0,100,0.00,,,0.00,,2013-10-10 15:54:00,
2013-10-10 12:12:00,61.0,54.0,30.09,NNW,328,0.0,7.0,79,0.00,,,0.00,,2013-10-10 16:12:00,
2013-10-10 12:13:00,59.0,58.0,30.09,NW,313,1.0,6.0,95,0.00,,,0.00,,2013-10-10 16:13:00,
2013-10-10 12:23:00,59.0,58.0,30.09,NW,313,1.0,6.0,95,0.00,,,0.00,,2013-10-10 16:23:00,
2013-10-10 12:42:00,61.0,54.0,30.09,NNW,328,0.0,7.0,79,0.00,,,0.00,,2013-10-10 16:42:00,
2013-10-10 12:53:00,61.0,54.0,30.09,NNW,328,0.0,7.0,79,0.00,,,0.00,,2013-10-10 16:53:00,
2013-10-10 13:02:00,61.0,54.0,30.09,NNW,328,0.0,7.0,79,0.00,,,0.00,,2013-10-10 17:02:00,
2013-10-10 13:42:00,69.0,59.0,30.06,NNW,344,1.0,5.0,70,0.00,,,0.00,,2013-10-10 17:42:00,
2013-10-10 13:53:00,69.0,59.0,30.06,NNW,344,1.0,5.0,70,0.00,,,0.00,,2013-10-10 17:53:00,
2013-10-10 14:42:00,74.0,58.0,30.06,NW,326,1.0,3.0,57,0.00,,,0.00,,2013-10-10 18:42:00,
2013-10-10 14:52:00,74.0,58.0,30.06,NW,326,1.0,3.0,57,0.00,,,0.00,,2013-10-10 18:52:00,
2013-10-10 15:11:00,74.0,58.0,30.05,NW,320,0.0,3.0,58,0.00,,,0.00,,2013-10-10 19:11:00,
2013-10-10 15:22:00,74.0,58.0,30.05,NW,320,0.0,3.0,58,0.00,,,0.00,,2013-10-10 19:22:00,
2013-10-10 15:42:00,73.0,59.0,30.04,WNW,301,0.0,3.0,61,0.00,,,0.00,,2013-10-10 19:42:00,
2013-10-10 15:53:00,73.0,59.0,30.04,WNW,301,0.0,3.0,61,0.00,,,0.00,,2013-10-10 19:53:00,
2013-10-10 16:12:00,72.0,57.0,30.05,WNW,301,2.0,5.0,60,0.00,,,0.00,,2013-10-10 20:12:00,
2013-10-10 16:22:00,72.0,57.0,30.05,WNW,301,2.0,5.0,60,0.00,,,0.00,,2013-10-10 20:22:00,
2013-10-10 16:42:00,70.0,57.0,30.02,NW,309,0.0,4.0,63,0.00,,,0.00,,2013-10-10 20:42:00,
2013-10-10 16:52:00,70.0,57.0,30.02,NW,309,0.0,4.0,63,0.00,,,0.00,,2013-10-10 20:52:00,
2013-10-10 17:12:00,69.0,56.0,30.02,NNW,347,1.0,5.0,64,0.00,,,0.00,,2013-10-10 21:12:00,
2013-10-10 17:22:00,69.0,56.0,30.02,NNW,347,1.0,5.0,64,0.00,,,0.00,,2013-10-10 21:22:00,
2013-10-10 17:44:00,68.0,57.0,30.02,NW,311,1.0,5.0,68,0.00,,,0.00,,2013-10-10 21:44:00,
2013-10-10 17:54:00,68.0,57.0,30.02,NW,311,1.0,5.0,68,0.00,,,0.00,,2013-10-10 21:54:00,
2013-10-10 18:13:00,65.0,58.0,30.03,NW,304,0.0,3.0,77,0.00,,,0.00,,2013-10-10 22:13:00,
2013-10-10 18:24:00,65.0,58.0,30.03,NW,304,0.0,3.0,77,0.00,,,0.00,,2013-10-10 22:24:00,
2013-10-10 18:43:00,63.0,57.0,30.03,NW,304,1.0,3.0,82,0.00,,,0.00,,2013-10-10 22:43:00,
2013-10-10 18:53:00,63.0,57.0,30.03,NW,304,1.0,3.0,82,0.00,,,0.00,,2013-10-10 22:53:00,
2013-10-10 19:12:00,61.0,55.0,30.01,NW,305,0.0,2.0,80,0.00,,,0.00,,2013-10-10 23:12:00,
2013-10-10 19:23:00,61.0,55.0,30.01,NW,305,0.0,2.0,80,0.00,,,0.00,,2013-10-10 23:23:00,
2013-10-10 19:43:00,61.0,55.0,30.02,NW,306,0.0,1.0,80,0.00,,,0.00,,2013-10-10 23:43:00,
2013-10-10 19:53:00,61.0,55.0,30.02,NW,306,0.0,1.0,80,0.00,,,0.00,,2013-10-10 23:53:00,
2013-10-10 20:11:00,60.0,54.0,30.02,NW,323,0.0,5.0,81,0.00,,,0.00,,2013-10-11 00:11:00,
2013-10-10 20:22:00,60.0,54.0,30.02,NW,323,0.0,5.0,81,0.00,,,0.00,,2013-10-11 00:22:00,
2013-10-10 20:42:00,60.0,54.0,30.01,NW,322,0.0,5.0,81,0.00,,,0.00,,2013-10-11 00:42:00,
2013-10-10 20:52:00,60.0,54.0,30.01,NW,322,0.0,5.0,81,0.00,,,0.00,,2013-10-11 00:52:00,
2013-10-10 21:12:00,59.0,54.0,30.03,NW,322,0.0,0.0,83,0.00,,,0.00,,2013-10-11 01:12:00,
2013-10-10 21:22:00,59.0,54.0,30.03,NW,322,0.0,0.0,83,0.00,,,0.00,,2013-10-11 01:22:00,
2013-10-10 21:42:00,58.0,53.0,30.02,NW,322,0.0,0.0,82,0.00,,,0.00,,2013-10-11 01:42:00,
2013-10-10 21:52:00,58.0,53.0,30.02,NW,322,0.0,0.0,82,0.00,,,0.00,,2013-10-11 01:52:00,
2013-10-10 22:12:00,57.0,53.0,30.03,NW,322,0.0,0.0,85,0.00,,,0.00,,2013-10-11 02:12:00,
2013-10-10 22:22:00,57.0,53.0,30.03,NW,322,0.0,0.0,85,0.00,,,0.00,,2013-10-11 02:22:00,
2013-10-10 22:42:00,56.0,52.0,30.04,NE,47,0.0,0.0,85,0.00,,,0.00,,2013-10-11 02:42:00,
2013-10-10 22:52:00,56.0,52.0,30.04,NE,47,0.0,0.0,85,0.00,,,0.00,,2013-10-11 02:52:00,
2013-10-10 23:11:00,56.0,52.0,30.03,NE,47,0.0,0.0,86,0.00,,,0.00,,2013-10-11 03:11:00,
2013-10-10 23:23:00,56.0,52.0,30.03,NE,47,0.0,0.0,86,0.00,,,0.00,,2013-10-11 03:23:00,
2013-10-10 23:44:00,56.0,52.0,30.01,NE,47,0.0,0.0,86,0.00,,,0.00,,2013-10-11 03:44:00,
2013-10-10 23:54:00,56.0,52.0,30.01,NE,47,0.0,0.0,86,0.00,,,0.00,,2013-10-11 03:54:00,